Stations météo

réclame
Mon MeteoGroup
Ponza, Italie (16280): Température de l'air & dewpoint: 05.12.2017 23:00:00 - 11.12.2017 23:00:00 (CET)Ponza, Italie (16280): Vitesse du vent: 05.12.2017 23:00:00 - 11.12.2017 23:00:00 (CET)Ponza, Italie (16280): Direction du vent: 05.12.2017 23:00:00 - 11.12.2017 23:00:00 (CET)Ponza, Italie (16280): reduced air pressure: 05.12.2017 23:00:00 - 11.12.2017 23:00:00 (CET)Ponza, Italie (16280): visibility: 05.12.2017 23:00:00 - 11.12.2017 23:00:00 (CET)Ponza, Italie (16280): Ensoleillement: 05.12.2017 23:00:00 - 11.12.2017 23:00:00 (CET)
Date & Time tt [°C] td [°C] ff [km/h] ff [knt] dd ppp [hPa] vv [km] sd [min]
11.12.2017 23:00:00 15,0 12,5 44 24 S 1010,1 10 -
11.12.2017 22:00:00 14,6 12,1 42 23 S 1009,9 10 -
11.12.2017 21:00:00 14,8 12,3 44 24 S 1009,8 10 -
11.12.2017 20:00:00 15,0 12,5 44 24 S 1009,2 10 -
11.12.2017 19:00:00 14,8 12,3 42 23 S 1009,1 10 -
11.12.2017 18:00:00 14,8 12,1 42 23 S 1008,9 10 -
11.12.2017 17:00:00 15,0 11,6 44 24 S 1008,6 10 0
11.12.2017 16:00:00 14,8 11,6 29 16 SSE 1008,6 8 0
11.12.2017 15:00:00 14,8 11,4 42 23 S 1008,5 8 0
11.12.2017 14:00:00 15,0 11,8 44 24 S 1008,7 8 0
11.12.2017 13:00:00 14,8 11,6 44 24 S 1008,8 9 0
11.12.2017 12:00:00 14,6 11,0 44 24 S 1009,2 9 0
11.12.2017 11:00:00 14,6 11,2 48 26 S 1009,5 10 0
11.12.2017 10:00:00 14,2 11,7 44 24 S 1009,3 10 0
11.12.2017 09:00:00 14,2 12,2 44 24 S 1008,8 10 0
11.12.2017 08:00:00 14,0 12,2 46 25 S 1009,8 10 0
11.12.2017 07:00:00 13,8 12,2 44 24 S 1009,8 10 -
11.12.2017 06:00:00 13,8 12,5 48 26 S 1009,8 10 -
11.12.2017 05:00:00 13,8 12,2 48 26 S 1009,8 10 -
11.12.2017 04:00:00 13,6 12,0 48 26 S 1010,3 10 -
11.12.2017 03:00:00 13,4 11,5 46 25 S 1010,9 10 -
11.12.2017 02:00:00 13,0 10,9 41 22 S 1011,3 10 -
11.12.2017 01:00:00 13,0 10,0 41 22 S 1011,9 10 -
11.12.2017 00:00:00 12,8 10,5 42 23 S 1013,0 10 -
10.12.2017 23:00:00 12,6 10,1 31 17 S 1013,3 10 -
10.12.2017 22:00:00 11,8 8,7 28 15 S 1014,0 10 -
10.12.2017 21:00:00 12,0 8,7 26 14 S 1014,2 10 -
10.12.2017 20:00:00 12,2 8,3 26 14 S 1014,2 10 -
10.12.2017 19:00:00 12,0 7,1 26 14 S 1014,2 10 -
10.12.2017 18:00:00 11,8 6,9 24 13 S 1014,7 10 -
10.12.2017 17:00:00 11,4 6,9 24 13 S 1015,1 10 -
10.12.2017 16:00:00 10,2 6,2 13 7 S 1016,1 10 0
10.12.2017 15:00:00 9,8 7,0 13 7 SSW 1016,4 8 0
10.12.2017 14:00:00 10,0 5,4 13 7 SSW 1016,8 20 0
10.12.2017 13:00:00 10,6 4,5 16 9 SSW 1017,5 20 0
10.12.2017 12:00:00 10,4 3,0 11 6 S 1018,3 30 12
10.12.2017 11:00:00 10,0 0,9 0 0 N 1018,5 40 54
10.12.2017 10:00:00 9,0 -1,1 5 3 S 1018,6 40 30
10.12.2017 09:00:00 7,8 -2,2 8 4 S 1018,0 40 24
10.12.2017 08:00:00 6,6 -3,9 8 4 N 1017,7 40 0
10.12.2017 07:00:00 7,0 -4,1 11 6 N 1017,6 50 -
10.12.2017 06:00:00 7,0 -4,1 11 6 NNW 1017,5 50 -
10.12.2017 05:00:00 7,0 -3,8 28 15 NNW 1017,5 50 -
10.12.2017 04:00:00 7,2 -2,8 34 18 N 1017,5 50 -
10.12.2017 03:00:00 7,4 -2,1 34 18 N 1017,5 50 -
10.12.2017 02:00:00 7,4 -2,1 22 12 N 1016,8 50 -
10.12.2017 01:00:00 7,6 -1,9 26 14 NNW 1016,5 50 -
10.12.2017 00:00:00 7,8 -2,0 34 18 NW 1016,3 50 -
09.12.2017 23:00:00 7,8 -1,4 29 16 NNW 1015,7 50 -
09.12.2017 22:00:00 7,8 0,1 34 18 NW 1015,5 40 -
09.12.2017 21:00:00 8,2 0,0 29 16 WNW 1014,4 10 -
09.12.2017 20:00:00 8,2 1,4 31 17 WNW 1013,4 10 -
09.12.2017 19:00:00 8,4 2,4 28 15 NW 1012,3 10 -
09.12.2017 18:00:00 9,6 2,5 35 19 NW 1011,3 10 -
09.12.2017 17:00:00 9,8 2,9 35 19 NW 1009,2 20 0
09.12.2017 16:00:00 9,8 3,8 31 17 WNW 1009,2 15 24
09.12.2017 15:00:00 10,0 5,4 35 19 WNW 1008,2 10 24
09.12.2017 14:00:00 10,0 5,8 37 20 WNW 1007,7 9 0
09.12.2017 13:00:00 10,8 6,4 37 20 W 1007,1 9 24
09.12.2017 12:00:00 11,0 5,7 35 19 WNW 1007,2 9 24
09.12.2017 11:00:00 11,4 6,1 35 19 W 1008,1 9 24
09.12.2017 10:00:00 11,4 6,1 41 22 W 1008,0 9 12
09.12.2017 09:00:00 11,0 5,5 50 27 W 1008,1 8 0
09.12.2017 08:00:00 11,0 6,2 44 24 SW 1008,1 10 12
09.12.2017 07:00:00 11,2 6,7 48 26 SW 1008,1 10 -
09.12.2017 06:00:00 11,2 9,6 35 19 SW 1008,1 10 -
09.12.2017 05:00:00 11,2 9,6 34 18 SSW 1008,6 10 -
09.12.2017 04:00:00 11,0 9,4 28 15 SSW 1010,2 10 -
09.12.2017 03:00:00 13,0 11,1 29 16 SW 1012,0 10 -
09.12.2017 02:00:00 13,0 9,8 41 22 SSW 1012,2 10 -
09.12.2017 01:00:00 13,0 10,5 41 22 SW 1013,2 10 -
09.12.2017 00:00:00 13,2 9,8 44 24 SSW 1014,2 10 -
08.12.2017 23:00:00 13,2 9,5 42 23 SSW 1015,1 10 -
08.12.2017 22:00:00 13,0 8,7 29 16 SSW 1016,1 10 -
08.12.2017 21:00:00 13,0 8,7 28 15 SSW 1016,2 10 -
08.12.2017 20:00:00 13,0 8,5 29 16 SW 1018,2 10 -
08.12.2017 19:00:00 13,0 8,5 28 15 SW 1018,2 10 -
08.12.2017 18:00:00 13,0 8,5 22 12 SSW 1019,0 10 -
08.12.2017 17:00:00 12,6 8,5 29 16 SW 1019,3 10 0
08.12.2017 16:00:00 13,0 8,1 26 14 SW 1020,0 15 0
08.12.2017 15:00:00 13,6 8,0 29 16 SW 1020,4 20 36
08.12.2017 14:00:00 14,0 9,0 29 16 SW 1021,2 30 60
08.12.2017 13:00:00 14,0 9,0 31 17 SW 1021,8 20 60
08.12.2017 12:00:00 13,4 9,5 29 16 SSW 1022,6 20 0
08.12.2017 11:00:00 13,0 9,2 28 15 SSW 1023,6 20 0
08.12.2017 10:00:00 13,0 9,6 24 13 SSW 1024,6 20 0
08.12.2017 09:00:00 12,4 8,9 15 8 S 1025,2 20 0
08.12.2017 08:00:00 12,2 8,7 13 7 SSW 1025,3 20 0
08.12.2017 07:00:00 11,6 8,3 11 6 SW 1026,4 20 -
08.12.2017 06:00:00 11,2 7,9 18 10 NW 1026,5 20 -
08.12.2017 05:00:00 11,4 8,2 16 9 NW 1026,9 20 -
08.12.2017 04:00:00 11,4 8,1 13 7 NNW 1027,4 20 -
08.12.2017 03:00:00 11,4 8,1 11 6 NW 1027,8 20 -
08.12.2017 02:00:00 11,4 8,1 11 6 WNW 1028,2 20 -
08.12.2017 01:00:00 11,4 8,1 13 7 WNW 1028,4 20 -
08.12.2017 00:00:00 11,6 8,3 11 6 SW 1029,2 20 -
07.12.2017 23:00:00 11,6 7,9 11 6 WSW 1029,5 20 -
07.12.2017 22:00:00 11,6 7,7 13 7 WSW 1029,7 20 -
07.12.2017 21:00:00 11,8 8,1 13 7 W 1029,9 20 -
07.12.2017 20:00:00 12,0 7,9 13 7 WSW 1030,1 20 -
07.12.2017 19:00:00 12,4 7,5 11 6 WSW 1030,3 20 -
07.12.2017 18:00:00 12,4 7,1 9 5 W 1030,4 20 -
07.12.2017 17:00:00 12,4 7,7 11 6 W 1030,4 15 -
07.12.2017 16:00:00 12,8 8,7 11 6 E 1030,7 15 0
07.12.2017 15:00:00 14,0 9,7 9 5 E 1030,6 15 0
07.12.2017 14:00:00 14,4 10,0 9 5 E 1030,9 15 0
07.12.2017 13:00:00 13,6 9,1 9 5 N 1031,6 15 24
07.12.2017 12:00:00 13,4 8,7 9 5 NE 1032,4 15 24
07.12.2017 11:00:00 13,0 8,9 13 7 NNE 1032,7 15 24
07.12.2017 10:00:00 11,8 8,1 13 7 NNE 1032,4 10 24
07.12.2017 09:00:00 10,8 8,2 11 6 NE 1032,7 10 24
07.12.2017 08:00:00 10,8 7,5 11 6 NNE 1032,5 10 0
07.12.2017 07:00:00 10,8 7,9 8 4 W 1032,5 10 -
07.12.2017 06:00:00 11,8 9,2 11 6 W 1032,6 15 -
07.12.2017 05:00:00 11,8 9,2 9 5 WSW 1032,7 20 -
07.12.2017 04:00:00 11,8 7,7 11 6 WNW 1033,2 20 -
07.12.2017 03:00:00 11,8 7,5 13 7 WNW 1033,4 20 -
07.12.2017 02:00:00 11,8 7,7 15 8 W 1033,4 20 -
07.12.2017 01:00:00 11,8 7,7 11 6 W 1033,5 20 -
07.12.2017 00:00:00 11,8 8,1 11 6 W 1033,5 20 -
06.12.2017 23:00:00 11,8 8,3 15 8 W 1033,5 20 -
06.12.2017 22:00:00 11,8 8,3 16 9 WNW 1033,5 15 -
06.12.2017 21:00:00 11,8 8,7 15 8 NW 1033,5 15 -
06.12.2017 20:00:00 11,8 9,0 11 6 W 1033,5 15 -
06.12.2017 19:00:00 11,8 8,8 9 5 WNW 1033,5 15 -
06.12.2017 18:00:00 11,8 8,7 11 6 WNW 1033,5 15 -
06.12.2017 17:00:00 12,2 8,7 9 5 WNW 1033,5 15 -
06.12.2017 16:00:00 12,8 8,9 11 6 WNW 1033,5 20 60
06.12.2017 15:00:00 13,0 9,4 11 6 WNW 1033,5 20 60
06.12.2017 14:00:00 13,0 9,6 9 5 W 1033,5 20 60
06.12.2017 13:00:00 12,8 9,3 11 6 WNW 1034,5 20 60
06.12.2017 12:00:00 12,4 9,0 15 8 WNW 1034,8 20 60
06.12.2017 11:00:00 12,0 8,8 8 4 N 1034,8 20 60
06.12.2017 10:00:00 11,6 8,6 8 4 N 1034,7 20 60
06.12.2017 09:00:00 11,2 8,2 13 7 N 1034,7 20 60
06.12.2017 08:00:00 10,8 7,1 8 4 N 1034,6 15 6
06.12.2017 07:00:00 10,4 6,4 8 4 N 1034,2 15 -
06.12.2017 06:00:00 10,8 6,2 5 3 N 1033,4 15 -
06.12.2017 05:00:00 10,8 5,8 5 3 NNW 1033,5 15 -
06.12.2017 04:00:00 10,8 5,4 8 4 NW 1033,6 15 -
06.12.2017 03:00:00 10,4 4,5 8 4 N 1033,9 15 -
06.12.2017 02:00:00 10,6 4,3 5 3 N 1033,9 15 -
06.12.2017 01:00:00 10,8 3,6 5 3 NNW 1034,0 15 -
06.12.2017 00:00:00 10,8 3,8 8 4 NNW 1033,9 15 -
05.12.2017 23:00:00 11,0 3,5 8 4 NW 1033,8 15 -

tt = Température de l'air
td = dewpoint
ff = Vitesse du vent
dd = Direction du vent
ppp = reduced air pressure
vv = visibility
sd = Ensoleillement

stations d'obs. à proximité